| time (UTC) | temp F | wind direction | speed MPH | gust MPH | rain 1hr in | rain 24hr in | rain mn in | humidity % | barometer mb |
| 20260831043016 | 83 | 148 | 0.0 | 0.0 | 0.00 | 0.00 | 0.00 | 73 | 1012.8 |
| 20260831041527 | 84 | 150 | 0.0 | 0.0 | 0.00 | 0.00 | 0.00 | 72 | 1012.7 |
| 20260831040034 | 84 | 150 | 0.0 | 0.0 | 0.00 | 0.00 | 0.00 | 72 | 1012.6 |
| 20260831034513 | 84 | 148 | 0.0 | 0.0 | 0.00 | 0.00 | 0.00 | 71 | 1012.4 |
| 20260831033052 | 85 | 147 | 0.0 | 0.0 | 0.00 | 0.00 | 0.00 | 70 | 1012.3 |
| 20260831031549 | 85 | 147 | 0.0 | 0.0 | 0.00 | 0.00 | 0.00 | 69 | 1012.2 |
| 20260831030031 | 86 | 146 | 0.0 | 0.0 | 0.00 | 0.00 | 0.00 | 68 | 1012.0 |
| 20260831024529 | 87 | 146 | 0.0 | 0.0 | 0.00 | 0.00 | 0.00 | 67 | 1011.8 |
| 20260831023036 | 87 | 148 | 0.0 | 0.0 | 0.00 | 0.00 | 0.00 | 66 | 1011.5 |
| 20260831021546 | 88 | 155 | 0.0 | 0.0 | 0.00 | 0.00 | 0.00 | 65 | 1011.3 |
| 20260831020023 | 88 | 148 | 0.0 | 0.0 | 0.00 | 0.00 | 0.00 | 63 | 1011.1 |
| 20260831014522 | 89 | 152 | 0.0 | 0.0 | 0.00 | 0.00 | 0.00 | 61 | 1010.9 |
| 20260831013019 | 90 | 150 | 0.0 | 0.0 | 0.00 | 0.00 | 0.00 | 59 | 1011.0 |
| 20260831011517 | 91 | 136 | 0.0 | 0.0 | 0.00 | 0.00 | 0.00 | 57 | 1010.9 |
| 20260831010031 | 92 | 133 | 0.0 | 0.0 | 0.00 | 0.00 | 0.00 | 55 | 1010.8 |
| 20260831004510 | 93 | 146 | 0.0 | 0.0 | 0.00 | 0.00 | 0.00 | 52 | 1010.7 |
| 20260831003007 | 93 | 146 | 0.0 | 0.0 | 0.00 | 0.00 | 0.00 | 50 | 1010.6 |
| 20260831001513 | 94 | 140 | 0.0 | 0.0 | 0.00 | 0.00 | 0.00 | 50 | 1010.4 |
| 20260831000007 | 95 | 153 | 0.0 | 0.0 | 0.00 | 0.00 | 0.00 | 48 | 1010.3 |
| 20260830234505 | 95 | 174 | 0.0 | 0.0 | 0.00 | 0.00 | 0.00 | 45 | 1010.4 |
| 20260830233006 | 96 | 174 | 0.0 | 0.0 | 0.00 | 0.00 | 0.00 | 44 | 1010.3 |
| 20260830231502 | 97 | 146 | 0.0 | 0.0 | 0.00 | 0.00 | 0.00 | 43 | 1010.3 |
| 20260830230059 | 98 | 144 | 0.0 | 0.0 | 0.00 | 0.00 | 0.00 | 41 | 1010.3 |
| 20260830224606 | 100 | 155 | 0.0 | 0.0 | 0.00 | 0.00 | 0.00 | 39 | 1010.3 |
| 20260830223100 | 100 | 150 | 0.0 | 0.0 | 0.00 | 0.00 | 0.00 | 37 | 1010.4 |
| 20260830221558 | 101 | 160 | 0.0 | 0.0 | 0.00 | 0.00 | 0.00 | 38 | 1010.4 |
| 20260830220121 | 102 | 170 | 0.0 | 0.0 | 0.00 | 0.00 | 0.00 | 38 | 1010.4 |
| 20260830214602 | 101 | 148 | 0.0 | 0.0 | 0.00 | 0.00 | 0.00 | 38 | 1010.5 |
| 20260830213054 | 101 | 154 | 0.0 | 0.0 | 0.00 | 0.00 | 0.00 | 38 | 1010.7 |
| 20260830211552 | 101 | 169 | 0.0 | 0.0 | 0.00 | 0.00 | 0.00 | 39 | 1010.9 |
| 20260830210050 | 100 | 169 | 0.0 | 0.0 | 0.00 | 0.00 | 0.00 | 41 | 1011.1 |
| 20260830204547 | 98 | 171 | 0.0 | 0.0 | 0.00 | 0.00 | 0.00 | 43 | 1011.3 |
| 20260830203056 | 101 | 174 | 0.0 | 0.0 | 0.00 | 0.00 | 0.00 | 39 | 1011.5 |
| 20260830201544 | 102 | 152 | 0.0 | 0.0 | 0.00 | 0.00 | 0.00 | 37 | 1011.8 |
| 20260830200048 | 101 | 159 | 0.0 | 0.0 | 0.00 | 0.00 | 0.00 | 40 | 1012.0 |
| 20260830194546 | 101 | 163 | 0.0 | 0.0 | 0.00 | 0.00 | 0.00 | 41 | 1012.4 |
| 20260830193044 | 99 | 152 | 0.0 | 0.0 | 0.00 | 0.00 | 0.00 | 41 | 1012.7 |
| 20260830191542 | 100 | 147 | 0.0 | 0.0 | 0.00 | 0.00 | 0.00 | 41 | 1012.9 |
| 20260830190034 | 98 | 172 | 0.0 | 0.0 | 0.00 | 0.00 | 0.00 | 46 | 1013.0 |
| 20260830184530 | 98 | 169 | 0.0 | 0.0 | 0.00 | 0.00 | 0.00 | 46 | 1013.2 |
| 20260830183027 | 98 | 176 | 0.0 | 0.0 | 0.00 | 0.00 | 0.00 | 46 | 1013.6 |
| 20260830181535 | 95 | 174 | 0.0 | 0.0 | 0.00 | 0.00 | 0.00 | 51 | 1013.7 |
| 20260830180047 | 92 | 180 | 0.0 | 0.0 | 0.00 | 0.00 | 0.00 | 55 | 1014.0 |
| 20260830174529 | 92 | 177 | 0.0 | 0.0 | 0.00 | 0.00 | 0.00 | 57 | 1014.3 |
| 20260830173050 | 93 | 179 | 0.0 | 0.0 | 0.00 | 0.00 | 0.00 | 57 | 1014.5 |
| 20260830171527 | 95 | 184 | 0.0 | 0.0 | 0.00 | 0.00 | 0.00 | 57 | 1014.6 |
| 20260830170024 | 95 | 191 | 0.0 | 0.0 | 0.00 | 0.00 | 0.00 | 55 | 1014.6 |
| 20260830164523 | 93 | 177 | 0.0 | 0.0 | 0.00 | 0.00 | 0.00 | 60 | 1014.7 |
| 20260830163024 | 92 | 172 | 0.0 | 0.0 | 0.00 | 0.00 | 0.00 | 61 | 1014.9 |
| 20260830161524 | 92 | 172 | 0.0 | 0.0 | 0.00 | 0.00 | 0.00 | 61 | 1014.9 |
| 20260830160026 | 89 | 183 | 0.0 | 0.0 | 0.00 | 0.00 | 0.00 | 69 | 1014.9 |
| 20260830154524 | 90 | 179 | 0.0 | 0.0 | 0.00 | 0.00 | 0.00 | 67 | 1015.0 |
| 20260830153023 | 90 | 173 | 0.0 | 0.0 | 0.00 | 0.00 | 0.00 | 69 | 1015.0 |
| 20260830151522 | 87 | 160 | 0.0 | 0.0 | 0.00 | 0.00 | 0.00 | 72 | 1014.8 |
| 20260830150020 | 87 | 160 | 0.0 | 0.0 | 0.00 | 0.00 | 0.00 | 72 | 1014.9 |
| 20260830144524 | 87 | 158 | 0.0 | 0.0 | 0.00 | 0.00 | 0.00 | 72 | 1014.8 |
| 20260830143025 | 87 | 151 | 0.0 | 0.0 | 0.00 | 0.01 | 0.00 | 72 | 1014.9 |
| 20260830141518 | 86 | 153 | 0.0 | 0.0 | 0.00 | 0.01 | 0.00 | 72 | 1014.8 |
| 20260830140020 | 84 | 153 | 0.0 | 0.0 | 0.00 | 0.01 | 0.00 | 69 | 1014.8 |
| 20260830134536 | 83 | 153 | 0.0 | 0.0 | 0.00 | 0.01 | 0.00 | 61 | 1014.8 |
| 20260830133025 | 81 | 153 | 0.0 | 0.0 | 0.00 | 0.01 | 0.00 | 47 | 1014.6 |
| 20260830131523 | 79 | 153 | 0.0 | 0.0 | 0.00 | 0.01 | 0.00 | 44 | 1014.5 |
| 20260830130023 | 78 | 153 | 0.0 | 0.0 | 0.00 | 0.01 | 0.00 | 42 | 1014.5 |
| 20260830124523 | 78 | 153 | 0.0 | 0.0 | 0.00 | 0.01 | 0.00 | 39 | 1014.3 |
| 20260830123021 | 77 | 153 | 0.0 | 0.0 | 0.00 | 0.01 | 0.00 | 1014.2 | |
| 20260830121516 | 0 | 0.0 | 0.0 | 0.00 | 0.01 | 0.00 | 1014.2 | ||
| 20260830120009 | 0 | 0.0 | 0.0 | 0.00 | 0.01 | 0.00 | 1014.0 | ||
| 20260830114504 | 0 | 0.0 | 0.0 | 0.00 | 0.01 | 0.00 | 1013.9 | ||
| 20260830113001 | 0 | 0.0 | 0.0 | 0.00 | 0.01 | 0.00 | 1013.9 | ||
| 20260830111556 | 0 | 0.0 | 0.0 | 0.00 | 0.01 | 0.00 | 1013.8 | ||
| 20260830104550 | 0 | 0.0 | 0.0 | 0.00 | 0.01 | 0.00 | 1013.6 | ||
| 20260830103045 | 0 | 0.0 | 0.0 | 0.00 | 0.01 | 0.00 | 1013.4 | ||
| 20260830101541 | 0 | 0.0 | 0.0 | 0.00 | 0.01 | 0.00 | 1013.4 | ||
| 20260830094514 | 0 | 0.0 | 0.0 | 0.00 | 0.01 | 0.00 | 1013.1 | ||
| 20260830093140 | 0 | 0.0 | 0.0 | 0.00 | 0.01 | 0.00 | 1013.2 | ||
| 20260830091528 | 0 | 0.0 | 0.0 | 0.00 | 0.01 | 0.00 | 1013.3 | ||
| 20260830090025 | 0 | 0.0 | 0.0 | 0.00 | 0.01 | 0.00 | 1013.3 | ||
| 20260830084519 | 0 | 0.0 | 0.0 | 0.00 | 0.01 | 0.00 | 1013.3 | ||
| 20260830083015 | 0 | 0.0 | 0.0 | 0.00 | 0.01 | 0.00 | 1013.3 | ||
| 20260830081517 | 0 | 0.0 | 0.0 | 0.00 | 0.01 | 0.00 | 1013.3 | ||
| 20260830080008 | 0 | 0.0 | 0.0 | 0.00 | 0.01 | 0.00 | 1013.5 | ||
| 20260830074506 | 0 | 0.0 | 0.0 | 0.00 | 0.01 | 0.00 | 1013.5 | ||
| 20260830073109 | 0 | 0.0 | 0.0 | 0.00 | 0.01 | 0.00 | 1013.6 | ||
| 20260830071606 | 0 | 0.0 | 0.0 | 0.00 | 0.01 | 0.00 | 1013.6 | ||
| 20260830070056 | 0 | 0.0 | 0.0 | 0.00 | 0.01 | 0.00 | 1013.6 | ||
| 20260830064548 | 0 | 0.0 | 0.0 | 0.00 | 0.01 | 0.00 | 1013.5 | ||
| 20260830063044 | 0 | 0.0 | 0.0 | 0.00 | 0.01 | 0.00 | 1013.6 | ||
| 20260830061541 | 80 | 153 | 0.0 | 0.0 | 0.00 | 0.01 | 0.00 | 69 | 1013.6 |
| 20260830060040 | 81 | 153 | 0.0 | 0.0 | 0.00 | 0.01 | 0.00 | 69 | 1013.5 |
| 20260830054547 | 81 | 153 | 0.0 | 0.0 | 0.00 | 0.01 | 0.00 | 70 | 1013.5 |
| 20260830053042 | 82 | 150 | 0.0 | 0.0 | 0.00 | 0.01 | 0.00 | 72 | 1013.5 |
| 20260830051545 | 82 | 151 | 0.0 | 0.0 | 0.00 | 0.01 | 0.00 | 72 | 1013.5 |
| 20260830050038 | 82 | 151 | 0.0 | 0.0 | 0.00 | 0.01 | 0.00 | 73 | 1013.5 |
| 20260830044540 | 83 | 151 | 0.0 | 0.0 | 0.00 | 0.01 | 0.00 | 73 | 1013.6 |